Regional Weather Roundup
Issued by NWS Cleveland, OH

Home | Current Version | Previous Version | Graphics & Text | Print | Product List | Glossary On
Versions: 1 2 3 4 5 6 7 8 9 10 11 12 13 14 15 16 17 18 19 20 21 22 23 24 25 26 27 28 29 30 31 32 33 34 35 36 37 38 39 40 41 42 43 44 45 46 47 48 49 50
287
ASUS41 KCLE 230402
RWRCLE
OHIO REGIONAL WEATHER ROUNDUP
NATIONAL WEATHER SERVICE CLEVELAND, OH
1200 AM EDT FRI JUN 23 2017

NOTE: "FAIR" INDICATES FEW OR NO CLOUDS BELOW 12,000 FEET WITH NO
SIGNIFICANT WEATHER AND/OR OBSTRUCTIONS TO VISIBILITY.

OHZ001>008-015>018-024>027-034-035-043-044-230500-
   NORTHWEST OHIO

CITY           SKY/WX    TMP DP  RH WIND       PRES   REMARKS
DEFIANCE       MOCLDY    75  65  70 S10       29.81F
FINDLAY        MOCLDY    75  65  70 S17G24    29.83F
TOLEDO EXPRESS CLEAR     75  68  78 S9        29.80F
TOLEDO EXEC    CLEAR     76  68  76 S15       29.81F
LIMA           CLOUDY    74  68  81 S12       29.86F
$$

OHZ009>014-019>023-028>033-038-089-230500-
   NORTHEAST OHIO

CITY           SKY/WX    TMP DP  RH WIND       PRES   REMARKS
CLE-HOPKINS    MOCLDY    80  67  64 S12       29.86F
CLE-LAKEFRONT  PTCLDY    79  68  69 S10       29.84F
CUY CO. ARPT   NOT AVBL
LORAIN-ELYRIA  PTCLDY    76  61  59 SW16      29.86F
ASHTABULA      CLOUDY    77  69  76 SW13      29.87F
AKRON-CANTON   CLOUDY    77  68  73 SW12      29.91F
WOOSTER        MOCLDY    75  65  70 SW10      29.92S
MANSFIELD      CLOUDY    73  66  78 S13       29.91F
YOUNGSTOWN     MOCLDY    75  68  78 S10       29.91S
$$

OHZ042-051>053-060>062-070>072-077>081-230500-
  SOUTHWEST OHIO

CITY           SKY/WX    TMP DP  RH WIND       PRES   REMARKS
CINC-COVINGTON LGT RAIN  70  69  97 S10       29.88F FOG
CINC-LUNKEN    LGT RAIN  70  32  24 S6        29.88F
HAMILTON       LGT RAIN  71  70  96 VRB3      29.88F
DAYTON         MOCLDY    72  67  84 S12       29.89F
WRIGHT-PAT AFB MOCLDY    72  70  95 S10       29.88F
DAYTON GENERAL CLOUDY    70  67  90 S8        29.89F
WILMINGTON     LGT RAIN  69  69 100 S8        29.90F
$$

OHZ036-037-039>041-045>050-054>059-063>069-073>076-082>088-230500-
  CENTRAL AND SOUTHEAST OHIO

CITY           SKY/WX    TMP DP  RH WIND       PRES   REMARKS
COLUMBUS       CLOUDY    73  70  90 S10       29.92S
OSU AIRPORT    CLOUDY    73  69  87 S10       29.91F
BOLTON FIELD   NOT AVBL
RICKENBACK AFB LGT RAIN  70  69  98 S6        29.92S
NEWARK         LGT RAIN  72  68  87 S5        29.93S
MARION         MOCLDY    74  66  76 S15       29.89F
LANCASTER      CLOUDY    71  68  90 S7        29.93F
ZANESVILLE     PTCLDY    73  67  81 S5        29.94F
NEW PHILLY     NOT AVBL
$$




USA.gov is the U.S. government's official web portal to all federal, state and local government web resources and services.